This demonstration page uses our WeatherBlox Daily Observations layout. Learn more.

Left ArrowRight Arrow

Hourly Observations for June 17, 2020

Temp ( °F °C ) Dew Point ( °F °C ) Humidity (%) Winds ( mph kmh ) Pressure ( in mb ) Visibility ( mi km ) Precip ( " mm )
12:53 am 00:53 Partly Cloudy 53 11.7 47 8.3 80 80 SSW 9 15 29.81 1009 10 16 N/A
1:53 am 01:53 Cloudy 53 11.7 48 8.9 83 83 NNW 8 13 29.82 1010 10 16 N/A
2:53 am 02:53 Cloudy 52 11.1 49 9.4 89 89 N N/A 29.86 1011 10 16 N/A
3:53 am 03:53 Cloudy 53 11.7 49 9.4 86 86 N N/A 29.85 1011 10 16 N/A
4:53 am 04:53 Cloudy 53 11.7 49 9.4 86 86 S 5 7 29.86 1011 10 16 N/A
5:53 am 05:53 Cloudy 52 11.1 49 9.4 89 89 WSW 3 6 29.88 1012 10 16 0.00 0.00
6:53 am 06:53 Cloudy 53 11.7 50 10 89 89 WSW 3 6 29.90 1012 10 16 N/A
7:53 am 07:53 Cloudy 57 13.9 49 9.4 74 74 W 7 11 29.89 1012 10 16 N/A
8:53 am 08:53 Cloudy 59 15 50 10 72 72 WNW 8 13 29.90 1013 10 16 N/A
9:53 am 09:53 Cloudy 61 16.1 49 9.4 65 65 NW 9 15 29.91 1013 10 16 N/A
10:53 am 10:53 Mostly Cloudy 60 15.6 50 10 70 70 WNW 14 22 29.90 1013 10 16 N/A
11:53 am 11:53 Mostly Cloudy with Light Rain 60 15.6 50 10 70 70 NW 16 26 29.90 1012 7 11 0.00 0.00
12:01 pm 12:01 Cloudy with Heavy Rain 54 12.2 50 10 87 87 N 17 28 29.89 1012 2 3 0.03 0.76
12:09 pm 12:09 Cloudy with Heavy Rain 52 11.1 48 8.9 86 86 N 16 26 29.91 1013 2 3 0.11 2.79
12:15 pm 12:15 Cloudy with Rain 53 11.7 49 9.4 86 86 N 13 20 29.90 1013 3 5 0.13 3.30
12:53 pm 12:53 Cloudy 58 14.4 51 10.6 78 78 NW 6 9 29.91 1013 10 16 0.15 3.81
1:53 pm 13:53 Cloudy 61 16.1 50 10 67 67 W 6 9 29.91 1013 10 16 N/A
2:53 pm 14:53 Cloudy 57 13.9 49 9.4 74 74 NNW 23 37 29.93 1014 9 14 0.06 1.52
3:53 pm 15:53 Cloudy 58 14.4 49 9.4 72 72 NW 14 22 29.94 1014 10 16 0.01 0.25
4:53 pm 16:53 Cloudy 62 16.7 49 9.4 62 62 NNW 9 15 29.94 1014 10 16 N/A
5:33 pm 17:33 Mostly Cloudy 61 16.1 48 8.9 63 63 N 13 20 29.89 1012 10 16 0.00 0.00
5:53 pm 17:53 Cloudy 59 15 51 10.6 75 75 N 6 9 29.96 1014 10 16 0.00 0.00
6:53 pm 18:53 Cloudy 60 15.6 48 8.9 65 65 WNW 14 22 29.96 1015 10 16 N/A
7:53 pm 19:53 Cloudy with Light Rain 55 12.8 50 10 83 83 WNW 7 11 29.98 1015 7 11 0.03 0.76
8:53 pm 20:53 Cloudy 57 13.9 52 11.1 83 83 WNW 14 22 29.98 1015 10 16 0.00 0.00
9:53 pm 21:53 Cloudy 54 12.2 50 10 87 87 WNW 13 20 30.00 1016 10 16 N/A
10:53 pm 22:53 Cloudy 55 12.8 50 10 83 83 WNW 14 22 30.01 1016 10 16 N/A
11:53 pm 23:53 Cloudy 54 12.2 50 10 87 87 WNW 10 17 30.02 1017 10 16 N/A

Powered by AerisWeather